Location: Newark
(39.6867°N, 100.6772°W)
Time: 23:45:43
(UTC+00:00)

Transit 2A - Pass Details

Date: 26 October 2019
Orbit: 601 x 957 km, 66.7° (Epoch: 16 November)

Event Time Altitude Azimuth Distance (km) Brightness Sun altitude
Rises 01:52:43 0° 249° (WSW) 3,307 10.3 -24.3°
Reaches altitude 10° 01:55:55 10° 266° (W) 2,306 9.5 -24.9°
Maximum altitude 01:59:36 19° 311° (NW) 1,693 8.3 -25.6°
Drops below altitude 10° 02:03:05 10° 357° (N) 2,152 8.4 -26.3°
Enters shadow 02:04:28 - 7° (N) 2,535 8.7 -26.5°
